Location: Newark
(13.8117°N, 3.6025°W)
Time: 02:14:21
(UTC+00:00)

Vanguard 2 Rocket - Visible Passes

Search period start: 25 August 2019 00:00
Search period end: 04 September 2019 00:00
Orbit: 553 x 3327 km, 32.9° (Epoch: 24 August)

Date Brightness Start Highest point End Pass type
(mag) Time Alt. Az. Time Alt. Az. Time Alt. Az.
25 Aug 9.9 01:10:28 26° NE 01:10:28 26° NE 01:16:04 10° NE visible
25 Aug 9.4 03:16:15 31° NW 03:20:39 38° N 03:36:40 10° ENE visible
25 Aug 10.3 05:26:52 10° NW 05:41:44 42° NNE 06:00:27 10° ENE visible
26 Aug 9.3 02:19:58 39° N 02:19:58 39° N 02:33:08 10° NE visible
26 Aug 10.1 04:26:11 10° WNW 04:38:45 37° N 04:56:19 10° ENE visible
27 Aug 9.8 01:23:42 27° NE 01:23:42 27° NE 01:30:13 10° NE visible
27 Aug 9.6 03:29:30 22° NW 03:36:13 35° N 03:51:57 10° ENE visible
27 Aug 10.3 05:41:35 10° NW 05:57:03 47° NNE 06:16:20 10° E visible
28 Aug 10.4 00:27:27 11° NE 00:27:27 11° NE 00:27:56 10° NE visible
28 Aug 9.4 02:33:15 33° NNW 02:34:15 33° N 02:47:54 10° NE visible
28 Aug 10.2 04:41:09 10° NW 04:54:12 40° NNE 05:12:20 10° E visible
29 Aug 9.7 01:37:01 27° NNE 01:37:01 27° NNE 01:44:32 10° NE visible
29 Aug 9.8 03:42:49 16° NW 03:51:44 35° N 04:07:46 10° ENE visible
30 Aug 10.3 00:40:49 13° NE 00:40:49 13° NE 00:42:01 10° NE visible
30 Aug 9.5 02:46:38 27° NNW 02:49:44 31° N 03:03:13 10° ENE visible
30 Aug 10.1 04:55:45 10° NW 05:09:22 46° NNE 05:28:17 10° E visible
31 Aug 9.7 01:50:29 27° NNE 01:50:29 27° NNE 01:59:14 10° NE visible
31 Aug 10.0 03:56:17 12° NW 04:07:04 38° NNE 04:23:51 10° E visible
01 Sep 10.3 00:54:22 14° NE 00:54:22 14° NE 00:56:15 10° NE visible
01 Sep 9.6 03:00:11 24° NNW 03:05:09 31° NNE 03:19:04 10° ENE visible
01 Sep 9.9 05:10:04 10° NW 05:24:09 56° NNE 05:43:53 10° ESE visible
02 Sep 9.7 02:04:07 26° NNE 02:04:07 26° NNE 02:14:33 10° ENE visible
02 Sep 9.9 04:10:17 10° NW 04:22:03 45° NNE 04:39:52 10° E visible
03 Sep 10.2 01:08:07 15° NE 01:08:07 15° NE 01:10:52 10° NE visible
03 Sep 9.6 03:13:57 22° NNW 03:20:19 35° NNE 03:35:12 10° E visible
03 Sep 9.7 05:24:16 10° NW 05:38:35 70° NNE 05:58:57 10° ESE visible
